Location: Unspecified
(35.6961°N, 0.0000°E)
Time: 11:59:45
(UTC+00:00)

Altair - Pass Details

Date: 28 May 2019
Orbit: 1501 x 1683 km, 47.2° (Epoch: 18 June)

Event Time Altitude Azimuth Distance (km) Brightness Sun altitude
Rises 09:30:23 0° 303° (WNW) 4,928 9.8 55.0°
Reaches altitude 10° 09:33:38 10° 300° (WNW) 3,926 9.4 55.6°
Maximum altitude 09:43:25 60° 224° (SW) 1,833 8.6 57.6°
Drops below altitude 10° 09:52:52 10° 147° (SSE) 3,788 10.1 59.4°
Sets 09:55:57 0° 144° (SE) 4,746 10.4 60.0°
